Time,TemperatureF,DewpointF,PressureIn,WindDirection,WindDirectionDegrees,WindSpeedMPH,WindSpeedGustMPH,Humidity,HourlyPrecipIn,Conditions,Clouds,dailyrainin,SoftwareType,DateUTC
2013-07-04 00:02:00,61.0,60.0,30.26,SW,219,0.0,0.0,96,0.00,,,-99.99,,2013-07-04 04:02:00,
2013-07-04 00:33:00,61.0,60.0,30.26,SW,219,0.0,0.0,96,0.00,,,0.00,,2013-07-04 04:33:00,
2013-07-04 00:43:00,61.0,60.0,30.27,SW,219,0.0,0.0,97,0.00,,,0.00,,2013-07-04 04:43:00,
2013-07-04 01:02:00,61.0,60.0,30.27,SW,219,0.0,1.0,96,0.00,,,0.00,,2013-07-04 05:02:00,
2013-07-04 01:33:00,62.0,61.0,30.26,SW,219,0.0,0.0,97,0.00,,,0.00,,2013-07-04 05:33:00,
2013-07-04 01:43:00,62.0,61.0,30.24,SW,219,0.0,1.0,97,0.01,,,0.01,,2013-07-04 05:43:00,
2013-07-04 02:01:00,62.0,61.0,30.24,SW,219,0.0,3.0,97,0.02,,,0.02,,2013-07-04 06:01:00,
2013-07-04 02:22:00,62.0,61.0,30.23,SW,219,0.0,0.0,97,0.02,,,0.02,,2013-07-04 06:22:00,
2013-07-04 02:34:00,63.0,62.0,30.23,SW,219,0.0,1.0,97,0.02,,,0.02,,2013-07-04 06:34:00,
2013-07-04 02:43:00,63.0,62.0,30.23,ENE,66,0.0,3.0,97,0.01,,,0.02,,2013-07-04 06:43:00,
2013-07-04 02:52:00,62.0,61.0,30.24,ENE,65,1.0,5.0,97,0.00,,,0.02,,2013-07-04 06:52:00,
2013-07-04 03:02:00,62.0,61.0,30.24,ENE,61,0.0,1.0,97,0.00,,,0.02,,2013-07-04 07:02:00,
2013-07-04 03:12:00,62.0,61.0,30.23,ENE,66,0.0,6.0,97,0.00,,,0.02,,2013-07-04 07:12:00,
2013-07-04 03:22:00,62.0,61.0,30.23,ENE,72,0.0,5.0,97,0.00,,,0.02,,2013-07-04 07:22:00,
2013-07-04 03:34:00,62.0,61.0,30.23,ENE,72,0.0,3.0,97,0.01,,,0.03,,2013-07-04 07:34:00,
2013-07-04 03:52:00,62.0,61.0,30.22,ENE,72,0.0,1.0,97,0.04,,,0.06,,2013-07-04 07:52:00,
2013-07-04 04:02:00,62.0,61.0,30.23,ENE,75,0.0,1.0,97,0.05,,,0.07,,2013-07-04 08:02:00,
2013-07-04 04:11:00,62.0,61.0,30.24,ENE,75,0.0,1.0,97,0.12,,,0.14,,2013-07-04 08:11:00,
2013-07-04 04:22:00,62.0,61.0,30.24,ENE,75,0.0,1.0,97,0.12,,,0.14,,2013-07-04 08:22:00,
2013-07-04 04:33:00,62.0,61.0,30.24,ENE,76,0.0,3.0,97,0.24,,,0.27,,2013-07-04 08:33:00,
2013-07-04 04:42:00,62.0,61.0,30.23,ENE,76,0.0,0.0,97,0.23,,,0.29,,2013-07-04 08:42:00,
2013-07-04 04:53:00,62.0,61.0,30.22,ENE,76,0.0,0.0,97,0.24,,,0.30,,2013-07-04 08:53:00,
2013-07-04 05:02:00,62.0,61.0,30.22,ENE,75,0.0,0.0,97,0.23,,,0.30,,2013-07-04 09:02:00,
2013-07-04 05:11:00,62.0,61.0,30.22,ENE,75,0.0,0.0,97,0.23,,,0.30,,2013-07-04 09:11:00,
2013-07-04 05:22:00,62.0,61.0,30.21,NE,46,0.0,1.0,97,0.07,,,0.31,,2013-07-04 09:22:00,
2013-07-04 05:52:00,62.0,61.0,30.24,NE,47,0.0,0.0,97,0.02,,,0.31,,2013-07-04 09:52:00,
2013-07-04 06:34:00,62.0,61.0,30.23,East,83,0.0,3.0,97,0.00,,,0.31,,2013-07-04 10:34:00,
2013-07-04 06:53:00,62.0,61.0,30.24,East,83,0.0,2.0,98,0.00,,,0.31,,2013-07-04 10:53:00,
2013-07-04 07:02:00,63.0,62.0,30.24,East,83,0.0,0.0,98,0.00,,,0.31,,2013-07-04 11:02:00,
2013-07-04 07:11:00,63.0,62.0,30.24,East,83,0.0,1.0,98,0.00,,,0.31,,2013-07-04 11:11:00,
2013-07-04 07:22:00,63.0,62.0,30.24,East,83,0.0,0.0,98,0.00,,,0.31,,2013-07-04 11:22:00,
2013-07-04 07:34:00,63.0,62.0,30.24,East,83,0.0,0.0,98,0.00,,,0.31,,2013-07-04 11:34:00,
2013-07-04 07:43:00,63.0,62.0,30.24,East,83,0.0,0.0,98,0.00,,,0.31,,2013-07-04 11:43:00,
2013-07-04 07:53:00,63.0,62.0,30.24,East,83,0.0,0.0,98,0.00,,,0.31,,2013-07-04 11:53:00,
2013-07-04 08:02:00,63.0,62.0,30.24,East,83,0.0,0.0,98,0.00,,,0.31,,2013-07-04 12:02:00,
2013-07-04 08:52:00,64.0,63.0,30.27,East,83,0.0,0.0,98,0.05,,,0.36,,2013-07-04 12:52:00,
2013-07-04 09:33:00,64.0,63.0,30.27,ENE,70,0.0,4.0,98,0.06,,,0.40,,2013-07-04 13:33:00,
2013-07-04 09:43:00,64.0,63.0,30.26,ENE,70,0.0,2.0,98,0.04,,,0.40,,2013-07-04 13:43:00,
2013-07-04 09:53:00,64.0,63.0,30.26,ENE,70,0.0,2.0,98,0.04,,,0.40,,2013-07-04 13:53:00,
2013-07-04 10:02:00,65.0,64.0,30.27,ENE,70,0.0,5.0,98,0.03,,,0.40,,2013-07-04 14:02:00,
2013-07-04 10:11:00,65.0,64.0,30.27,ENE,70,0.0,5.0,98,0.03,,,0.40,,2013-07-04 14:11:00,
2013-07-04 10:22:00,65.0,64.0,30.26,ENE,77,0.0,2.0,98,0.01,,,0.40,,2013-07-04 14:22:00,
2013-07-04 10:33:00,65.0,64.0,30.26,NE,49,0.0,3.0,98,0.00,,,0.40,,2013-07-04 14:33:00,
2013-07-04 10:43:00,66.0,65.0,30.26,NE,50,0.0,1.0,98,0.00,,,0.40,,2013-07-04 14:43:00,
2013-07-04 10:53:00,66.0,65.0,30.26,NE,50,0.0,1.0,98,0.00,,,0.40,,2013-07-04 14:53:00,
2013-07-04 11:02:00,66.0,65.0,30.26,NE,50,0.0,1.0,98,0.00,,,0.40,,2013-07-04 15:02:00,
2013-07-04 11:11:00,67.0,67.0,30.27,NE,49,0.0,1.0,99,0.00,,,0.40,,2013-07-04 15:11:00,
2013-07-04 11:23:00,67.0,66.0,30.26,NE,50,0.0,2.0,98,0.00,,,0.40,,2013-07-04 15:23:00,
2013-07-04 11:33:00,67.0,66.0,30.26,NE,49,0.0,1.0,98,0.01,,,0.41,,2013-07-04 15:33:00,
2013-07-04 11:43:00,67.0,66.0,30.26,NE,50,0.0,2.0,98,0.01,,,0.41,,2013-07-04 15:43:00,
2013-07-04 11:52:00,68.0,68.0,30.26,NE,50,0.0,2.0,99,0.01,,,0.41,,2013-07-04 15:52:00,
2013-07-04 12:02:00,68.0,67.0,30.26,NE,50,0.0,2.0,98,0.01,,,0.41,,2013-07-04 16:02:00,
2013-07-04 12:11:00,68.0,67.0,30.25,SW,222,0.0,4.0,97,0.01,,,0.41,,2013-07-04 16:11:00,
2013-07-04 12:22:00,68.0,67.0,30.26,WNW,298,0.0,2.0,97,0.02,,,0.42,,2013-07-04 16:22:00,
2013-07-04 12:33:00,68.0,67.0,30.26,WNW,298,0.0,1.0,97,0.03,,,0.44,,2013-07-04 16:33:00,
2013-07-04 12:43:00,68.0,67.0,30.26,North,0,1.0,4.0,97,0.03,,,0.44,,2013-07-04 16:43:00,
2013-07-04 12:52:00,69.0,68.0,30.26,ENE,63,0.0,4.0,97,0.03,,,0.44,,2013-07-04 16:52:00,
2013-07-04 13:01:00,69.0,68.0,30.26,NNW,336,0.0,4.0,96,0.05,,,0.46,,2013-07-04 17:01:00,
2013-07-04 13:12:00,69.0,67.0,30.26,NNW,345,0.0,3.0,94,0.06,,,0.47,,2013-07-04 17:12:00,
2013-07-04 13:22:00,69.0,67.0,30.25,North,0,1.0,3.0,93,0.05,,,0.47,,2013-07-04 17:22:00,
2013-07-04 13:34:00,69.0,67.0,30.25,North,0,0.0,3.0,93,0.04,,,0.48,,2013-07-04 17:34:00,
2013-07-04 13:43:00,69.0,67.0,30.25,West,268,1.0,2.0,93,0.04,,,0.48,,2013-07-04 17:43:00,
2013-07-04 13:53:00,69.0,67.0,30.24,North,3,2.0,5.0,94,0.04,,,0.48,,2013-07-04 17:53:00,
2013-07-04 14:01:00,69.0,67.0,30.24,North,354,0.0,3.0,93,0.02,,,0.48,,2013-07-04 18:01:00,
2013-07-04 14:11:00,70.0,68.0,30.24,North,352,0.0,5.0,95,0.01,,,0.48,,2013-07-04 18:11:00,
2013-07-04 14:22:00,70.0,68.0,30.24,North,350,0.0,3.0,93,0.01,,,0.48,,2013-07-04 18:22:00,
2013-07-04 14:33:00,71.0,68.0,30.23,NNW,332,0.0,6.0,91,0.00,,,0.48,,2013-07-04 18:33:00,
2013-07-04 14:43:00,71.0,69.0,30.23,NNW,334,0.0,5.0,92,0.00,,,0.48,,2013-07-04 18:43:00,
2013-07-04 14:52:00,72.0,69.0,30.23,WNW,291,0.0,1.0,91,0.00,,,0.48,,2013-07-04 18:52:00,
2013-07-04 15:02:00,72.0,69.0,30.23,WNW,292,0.0,2.0,89,0.00,,,0.48,,2013-07-04 19:02:00,
2013-07-04 15:12:00,71.0,68.0,30.23,ENE,65,1.0,4.0,89,0.00,,,0.48,,2013-07-04 19:12:00,
2013-07-04 15:22:00,71.0,67.0,30.23,NNE,23,0.0,5.0,88,0.00,,,0.48,,2013-07-04 19:22:00,
2013-07-04 15:33:00,71.0,68.0,30.22,ENE,68,0.0,5.0,89,0.01,,,0.49,,2013-07-04 19:33:00,
2013-07-04 15:43:00,70.0,67.0,30.23,ENE,67,0.0,2.0,89,0.04,,,0.52,,2013-07-04 19:43:00,
2013-07-04 15:53:00,70.0,67.0,30.23,ENE,66,0.0,3.0,90,0.07,,,0.55,,2013-07-04 19:53:00,
2013-07-04 16:02:00,70.0,67.0,30.22,ENE,66,0.0,1.0,90,0.09,,,0.57,,2013-07-04 20:02:00,
2013-07-04 16:11:00,70.0,67.0,30.22,North,352,0.0,4.0,90,0.09,,,0.57,,2013-07-04 20:11:00,
2013-07-04 16:22:00,70.0,67.0,30.22,NNE,16,0.0,8.0,91,0.09,,,0.57,,2013-07-04 20:22:00,
2013-07-04 16:34:00,70.0,67.0,30.22,ENE,70,0.0,5.0,91,0.08,,,0.57,,2013-07-04 20:34:00,
2013-07-04 16:42:00,70.0,67.0,30.22,ENE,70,0.0,1.0,91,0.05,,,0.57,,2013-07-04 20:42:00,
2013-07-04 16:53:00,70.0,67.0,30.21,ENE,70,0.0,1.0,91,0.02,,,0.57,,2013-07-04 20:53:00,
2013-07-04 17:01:00,71.0,68.0,30.21,ENE,68,0.0,3.0,90,0.00,,,0.57,,2013-07-04 21:01:00,
2013-07-04 17:11:00,71.0,68.0,30.21,ENE,68,1.0,3.0,90,0.00,,,0.57,,2013-07-04 21:11:00,
2013-07-04 17:22:00,70.0,67.0,30.20,ENE,68,0.0,2.0,90,0.00,,,0.57,,2013-07-04 21:22:00,
2013-07-04 17:32:00,70.0,67.0,30.22,NE,40,1.0,8.0,90,0.01,,,0.58,,2013-07-04 21:32:00,
2013-07-04 17:43:00,69.0,66.0,30.24,WSW,244,1.0,9.0,89,0.04,,,0.61,,2013-07-04 21:43:00,
2013-07-04 17:53:00,69.0,66.0,30.24,NNW,342,1.0,6.0,89,0.07,,,0.64,,2013-07-04 21:53:00,
2013-07-04 18:02:00,68.0,65.0,30.23,West,281,0.0,2.0,90,0.22,,,0.79,,2013-07-04 22:02:00,
2013-07-04 18:12:00,67.0,64.0,30.23,ENE,67,0.0,3.0,89,0.22,,,0.79,,2013-07-04 22:12:00,
2013-07-04 18:22:00,67.0,64.0,30.22,ENE,67,0.0,3.0,90,0.23,,,0.80,,2013-07-04 22:22:00,
2013-07-04 18:33:00,67.0,64.0,30.22,ENE,67,0.0,1.0,90,0.31,,,0.89,,2013-07-04 22:33:00,
2013-07-04 18:43:00,67.0,65.0,30.22,ENE,72,1.0,3.0,92,0.35,,,0.96,,2013-07-04 22:43:00,
2013-07-04 18:52:00,67.0,65.0,30.22,ENE,72,1.0,3.0,92,0.35,,,0.96,,2013-07-04 22:52:00,
2013-07-04 19:01:00,67.0,65.0,30.22,ENE,72,0.0,0.0,94,0.18,,,0.96,,2013-07-04 23:01:00,
2013-07-04 19:12:00,67.0,66.0,30.22,ENE,72,1.0,3.0,95,0.17,,,0.96,,2013-07-04 23:12:00,
2013-07-04 19:23:00,68.0,67.0,30.21,ENE,74,1.0,2.0,95,0.17,,,0.96,,2013-07-04 23:23:00,
2013-07-04 19:33:00,68.0,67.0,30.22,NNW,339,3.0,5.0,95,0.08,,,0.96,,2013-07-04 23:33:00,
2013-07-04 19:43:00,68.0,67.0,30.23,West,279,0.0,3.0,95,0.02,,,0.98,,2013-07-04 23:43:00,
2013-07-04 19:52:00,68.0,67.0,30.24,ENE,68,0.0,2.0,95,0.03,,,0.99,,2013-07-04 23:52:00,
2013-07-04 20:01:00,68.0,67.0,30.23,ENE,68,0.0,2.0,95,0.04,,,1.00,,2013-07-05 00:01:00,
2013-07-04 20:11:00,67.0,66.0,30.23,NNE,29,0.0,3.0,95,0.05,,,1.01,,2013-07-05 00:11:00,
2013-07-04 20:22:00,67.0,65.0,30.24,NNE,29,0.0,0.0,94,0.05,,,1.01,,2013-07-05 00:22:00,
2013-07-04 20:32:00,67.0,65.0,30.24,NNE,29,0.0,0.0,94,0.07,,,1.03,,2013-07-05 00:32:00,
2013-07-04 20:43:00,67.0,65.0,30.24,NNE,29,0.0,2.0,94,0.07,,,1.05,,2013-07-05 00:43:00,
2013-07-04 20:52:00,67.0,65.0,30.24,NNE,29,0.0,2.0,94,0.07,,,1.05,,2013-07-05 00:52:00,
2013-07-04 21:01:00,67.0,65.0,30.23,NNE,31,0.0,2.0,94,0.08,,,1.07,,2013-07-05 01:01:00,
2013-07-04 21:11:00,67.0,65.0,30.23,NNE,31,0.0,2.0,94,0.08,,,1.07,,2013-07-05 01:11:00,
2013-07-04 21:22:00,66.0,64.0,30.23,NE,53,2.0,6.0,93,0.08,,,1.08,,2013-07-05 01:22:00,
2013-07-04 21:32:00,66.0,64.0,30.23,NE,53,2.0,6.0,93,0.08,,,1.08,,2013-07-05 01:32:00,
2013-07-04 21:42:00,66.0,64.0,30.23,NE,55,1.0,3.0,94,0.07,,,1.08,,2013-07-05 01:42:00,
2013-07-04 21:52:00,66.0,64.0,30.23,NE,55,1.0,3.0,94,0.07,,,1.08,,2013-07-05 01:52:00,
2013-07-04 22:02:00,66.0,65.0,30.23,ENE,58,0.0,2.0,95,0.07,,,1.14,,2013-07-05 02:02:00,
2013-07-04 22:11:00,66.0,65.0,30.23,ENE,57,0.0,1.0,96,0.06,,,1.14,,2013-07-05 02:11:00,
2013-07-04 22:22:00,66.0,65.0,30.23,ENE,57,0.0,1.0,96,0.06,,,1.14,,2013-07-05 02:22:00,
2013-07-04 22:32:00,66.0,65.0,30.23,ENE,58,0.0,1.0,95,0.09,,,1.17,,2013-07-05 02:32:00,
2013-07-04 22:42:00,66.0,65.0,30.23,ENE,58,0.0,1.0,95,0.09,,,1.17,,2013-07-05 02:42:00,
2013-07-04 22:52:00,66.0,65.0,30.23,ENE,58,0.0,1.0,95,0.09,,,1.17,,2013-07-05 02:52:00,
2013-07-04 23:02:00,66.0,65.0,30.25,ENE,58,0.0,1.0,96,0.04,,,1.18,,2013-07-05 03:02:00,
2013-07-04 23:11:00,66.0,65.0,30.25,ENE,58,0.0,1.0,96,0.04,,,1.18,,2013-07-05 03:11:00,
2013-07-04 23:22:00,66.0,65.0,30.25,ENE,58,0.0,1.0,96,0.04,,,1.18,,2013-07-05 03:22:00,
2013-07-04 23:33:00,66.0,65.0,30.25,ENE,58,0.0,1.0,96,0.04,,,1.18,,2013-07-05 03:33:00,
2013-07-04 23:42:00,66.0,65.0,30.25,ENE,57,0.0,2.0,96,0.01,,,1.18,,2013-07-05 03:42:00,
2013-07-04 23:52:00,66.0,65.0,30.25,ENE,57,0.0,2.0,96,0.01,,,1.18,,2013-07-05 03:52:00,